CST,Max TemperatureF,Mean TemperatureF,Min TemperatureF,Max Dew PointF,MeanDew PointF,Min DewpointF,Max Humidity, Mean Humidity, Min Humidity, Max Sea Level PressureIn, Mean Sea Level PressureIn, Min Sea Level PressureIn, Max VisibilityMiles, Mean VisibilityMiles, Min VisibilityMiles, Max Wind SpeedMPH, Mean Wind SpeedMPH, Max Gust SpeedMPH,PrecipitationIn, CloudCover, Events, WindDirDegrees
2013-1-1,34,31,28,30,26,23,85,78,70,30.34,30.24,30.10,10,8,6,14,10,18,0.00,8,,338
2013-1-2,44,34,24,26,24,21,91,73,45,30.38,30.32,30.25,10,9,5,10,6,,0.00,2,,317
2013-1-3,46,34,21,24,22,19,92,69,37,30.50,30.46,30.38,10,10,10,13,4,,0.00,0,,343
2013-1-4,45,35,25,32,27,22,89,70,49,30.52,30.43,30.33,10,10,10,12,3,,0.00,5,,193
2013-1-5,52,41,30,34,29,22,89,67,38,30.35,30.26,30.18,10,10,10,13,8,23,0.00,3,,224
2013-1-6,55,41,27,25,24,20,78,54,28,30.45,30.38,30.33,10,10,10,13,5,,0.00,0,,1
2013-1-7,51,35,19,30,24,16,92,69,36,30.33,30.23,30.11,10,10,10,10,2,,0.00,0,,163
2013-1-8,51,38,26,43,36,23,89,75,63,30.15,30.08,30.03,10,10,8,12,4,,0.00,6,,88
2013-1-9,51,48,46,49,44,42,96,86,76,30.27,30.15,30.04,10,6,2,25,14,34,0.12,8,Rain,25
2013-1-10,55,50,46,54,50,43,100,93,82,30.02,29.90,29.82,10,7,0,14,8,21,0.25,6,Fog-Rain,155
2013-1-11,72,56,41,50,45,39,93,73,43,29.85,29.77,29.65,10,10,10,17,9,25,0.00,0,,188
2013-1-12,55,42,30,32,23,14,70,53,35,30.09,29.92,29.81,10,10,10,29,20,38,0.00,3,,8
2013-1-13,36,30,23,15,12,11,65,53,38,30.38,30.27,30.10,10,10,10,21,15,28,0.00,0,,11
2013-1-14,39,31,23,14,11,10,63,50,32,30.44,30.36,30.28,10,10,10,20,12,25,0.00,2,,32
2013-1-15,37,28,19,18,16,13,81,59,37,30.32,30.29,30.24,10,10,10,14,10,,0.00,4,,356
2013-1-16,48,32,17,23,18,12,84,60,28,30.29,30.24,30.16,10,10,10,10,4,17,0.00,2,,269
2013-1-17,57,42,26,31,27,21,85,60,35,30.53,30.45,30.28,10,10,10,16,6,,0.00,0,,8
2013-1-18,61,41,21,32,27,19,89,62,30,30.51,30.37,30.20,10,10,10,14,4,21,0.00,0,,183
2013-1-19,64,44,25,35,30,22,88,66,33,30.23,30.18,30.11,10,10,10,10,3,,0.00,0,,205
2013-1-20,64,47,30,38,32,26,92,61,34,30.23,30.17,30.09,10,10,10,18,4,,0.00,0,,36
2013-1-21,46,36,24,26,17,12,77,49,31,30.42,30.32,30.23,10,10,10,28,17,32,0.00,0,,28
2013-1-22,61,40,18,37,26,15,88,62,33,30.31,30.24,30.15,10,10,10,9,3,,0.00,0,,164
2013-1-23,69,48,28,51,38,27,100,85,53,30.25,30.18,30.09,10,5,0,9,2,,0.00,1,Fog,207
2013-1-24,46,41,34,44,35,27,93,77,63,30.23,30.15,30.11,10,7,2,17,7,,0.00,3,,14
2013-1-25,50,40,30,35,30,24,85,72,54,30.26,30.21,30.14,10,9,6,15,10,,0.00,2,,21
2013-1-26,54,40,26,46,36,24,97,81,53,30.24,30.15,30.06,10,6,1,14,5,,0.00,2,,123
2013-1-27,73,60,46,56,52,46,100,84,51,30.05,29.93,29.80,10,5,0,23,12,30,0.00,5,Fog,157
2013-1-28,78,68,57,62,59,54,93,75,52,29.92,29.81,29.71,10,10,6,21,13,29,0.00,3,,175
2013-1-29,68,56,43,63,50,32,94,72,35,29.71,29.59,29.48,10,9,2,23,12,41,0.56,4,Rain-Thunderstorm,239
2013-1-30,48,39,30,34,25,15,72,55,26,30.12,29.98,29.72,10,10,10,17,11,26,0.00,2,,306
2013-1-31,60,42,25,30,24,20,84,60,28,30.39,30.18,30.08,10,10,10,24,5,33,0.00,0,,147